QPF
0.02 0.01 0.00 0.00 0.00 0.00 0.00 0.00 0.00 0.00 0.00 0.00 0.00 0.00 0.00 0.00 0.00 0.00 0.00 0.00 0.00 0.00 0.00 0.00 0.00 0.00 0.00 0.00 0.00 0.00 0.00 0.00 0.00 0.00 0.00 0.00 0.00 0.00 0.00 0.00 0.00 0.00 0.00 0.00
0.03 0.01 0.00 0.00 0.00 0.00 0.00 0.01 0.00 0.00 0.00 0.00 0.00 0.00 0.00 0.00 0.00 0.00 0.00 0.00 0.00 0.00 0.00 0.00 0.00 0.00 0.00 0.00 0.00 0.00 0.00 0.00 0.00 0.00 0.00 0.00 0.00 0.00 0.00 0.00 0.00 0.00 0.00 0.00
0.00 0.00 0.00 0.00 0.00 0.00 0.00 0.00 0.00 0.00 0.00 0.00 0.00 0.00 0.00 0.00 0.00 0.00 0.00 0.00 0.00 0.00 0.00 0.00 0.00 0.00 0.00 0.00 0.00 0.00 0.00 0.00 0.00 0.00 0.00 0.00 0.00 0.00 0.00 0.00 0.00 0.00 0.00 0.00
0.03 0.00 0.00 0.00 0.00 0.00 0.00 0.00 0.00 0.00 0.00 0.00 0.00 0.00 0.00 0.00 0.00 0.00 0.00 0.00 0.00 0.00 0.00 0.00 0.00 0.00 0.00 0.00 0.00 0.00 0.00 0.00 0.00 0.00 0.00 0.00 0.00 0.00 0.00 0.00 0.00 0.00 0.00 0.00
0.00 0.00 0.00 0.00 0.00 0.00 0.00 0.00 0.00 0.00 0.01 0.02 0.00 0.00 0.00 0.00 0.00 0.00 0.00 0.00 0.00 0.00 0.00 0.00 0.00 0.00 0.00 0.00 0.00 0.00 0.00 0.00 0.00 0.00 0.00 0.00 0.00 0.00 0.00 0.00 0.00 0.00 0.00 0.00
0.00 0.00 0.00 0.00 0.00 0.00 0.00 0.00 0.00 0.01 0.02 0.03 0.00 0.00 0.00 0.00 0.00 0.00 0.00 0.00 0.00 0.00 0.00 0.00 0.00 0.00 0.00 0.00 0.00 0.00 0.00 0.00 0.00 0.00 0.00 0.00 0.00 0.00 0.00 0.00 0.00 0.00 0.00 0.00
0.00 0.01 0.00 0.00 0.01 0.01 0.02 0.02 0.02 0.02 0.01 0.00 0.00 0.00 0.00 0.00 0.00 0.00 0.00 0.00 0.00 0.00 0.00 0.00 0.00 0.00 0.00 0.00 0.00 0.00 0.00 0.00 0.00 0.00 0.00 0.00 0.00 0.00 0.00 0.00 0.00 0.00 0.00 0.00
0.00 0.00 0.00 0.00 0.01 0.01 0.01 0.01 0.01 0.00 0.00 0.00 0.00 0.00 0.00 0.00 0.00 0.00 0.00 0.00 0.00 0.00 0.00 0.00 0.00 0.00 0.00 0.00 0.00 0.00 0.00 0.00 0.00 0.00 0.00 0.00 0.00 0.00 0.00 0.00 0.00 0.00 0.00 0.00
0.00 0.00 0.00 0.00 0.00 0.01 0.02 0.03 0.00 0.00 0.00 0.00 0.00 0.00 0.00 0.00 0.00 0.00 0.00 0.00 0.00 0.00 0.00 0.00 0.00 0.00 0.00 0.00 0.00 0.00 0.00 0.00 0.00 0.00 0.00 0.00 0.00 0.00 0.00 0.00 0.00 0.00 0.00 0.00
0.00 0.00 0.00 0.00 0.00 0.01 0.02 0.01 0.01 0.01 0.01 0.00 0.00 0.00 0.00 0.00 0.00 0.00 0.00 0.00 0.00 0.00 0.00 0.00 0.00 0.00 0.00 0.00 0.00 0.00 0.00 0.00 0.00 0.00 0.00 0.00 0.00 0.00 0.00 0.00 0.00 0.00 0.01 0.01
0.00 0.00 0.00 0.00 0.00 0.00 0.02 0.01 0.01 0.00 0.00 0.00 0.00 0.00 0.00 0.00 0.00 0.00 0.00 0.00 0.00 0.00 0.00 0.00 0.00 0.00 0.00 0.00 0.00 0.00 0.00 0.00 0.00 0.00 0.00 0.00 0.00 0.00 0.00 0.00 0.00 0.00 0.00 0.00
0.00 0.00 0.00 0.00 0.00 0.00 0.01 0.01 0.01 0.01 0.00 0.00 0.00 0.00 0.00 0.00 0.00 0.00 0.00 0.00 0.00 0.00 0.00 0.00 0.00 0.00 0.00 0.00 0.00 0.00 0.00 0.00 0.00 0.00 0.00 0.00 0.00 0.00 0.00 0.00 0.00 0.00 0.00 0.00
0.00 0.00 0.00 0.00 0.00 0.00 0.00 0.00 0.00 0.00 0.01 0.00 0.00 0.00 0.00 0.00 0.00 0.00 0.00 0.00 0.00 0.00 0.00 0.00 0.00 0.00 0.00 0.00 0.00 0.00 0.00 0.00 0.00 0.00 0.00 0.00 0.00 0.00 0.00 0.00 0.00 0.00 0.00 0.00
0.00 0.00 0.00 0.00 0.00 0.00 0.00 0.00 0.00 0.00 0.00 0.00 0.00 0.00 0.00 0.00 0.00 0.00 0.00 0.00 0.00 0.00 0.00 0.00 0.00 0.00 0.00 0.00 0.00 0.00 0.00 0.00 0.00 0.00 0.00 0.00 0.00 0.00 0.00 0.00 0.00 0.00 0.00 0.00
0.00 0.00 0.00 0.00 0.00 0.00 0.00 0.00 0.00 0.00 0.00 0.00 0.00 0.00 0.00 0.00 0.00 0.00 0.00 0.00 0.00 0.00 0.00 0.00 0.00 0.00 0.00 0.00 0.00 0.00 0.00 0.00 0.00 0.00 0.00 0.00 0.00 0.00 0.00 0.00 0.00 0.00 0.00 0.00
0.00 0.00 0.00 0.00 0.00 0.00 0.00 0.00 0.00 0.00 0.00 0.00 0.00 0.00 0.00 0.00 0.00 0.00 0.00 0.00 0.00 0.00 0.00 0.00 0.00 0.00 0.00 0.00 0.00 0.00 0.00 0.00 0.00 0.00 0.00 0.00 0.00 0.00 0.00 0.00 0.00 0.00 0.00 0.00
0.00 0.00 0.00 0.00 0.00 0.00 0.00 0.00 0.00 0.00 0.00 0.00 0.00 0.00 0.00 0.00 0.00 0.00 0.00 0.00 0.00 0.00 0.00 0.00 0.00 0.00 0.00 0.00 0.00 0.00 0.00 0.00 0.00 0.00 0.00 0.00 0.00 0.00 0.00 0.00 0.00 0.00 0.00 0.00
0.00 0.00 0.00 0.00 0.00 0.01 0.00 0.00 0.00 0.00 0.00 0.00 0.00 0.00 0.00 0.00 0.00 0.00 0.00 0.00 0.00 0.00 0.00 0.00 0.00 0.00 0.00 0.00 0.00 0.00 0.00 0.00 0.00 0.00 0.00 0.00 0.00 0.00 0.00 0.00 0.00 0.00 0.00 0.00
0.00 0.00 0.00 0.00 0.00 0.00 0.00 0.00 0.00 0.00 0.00 0.00 0.00 0.00 0.00 0.00 0.00 0.00 0.00 0.00 0.00 0.00 0.00 0.00 0.00 0.00 0.00 0.00 0.00 0.00 0.00 0.00 0.00 0.00 0.00 0.00 0.00 0.00 0.00 0.00 0.00 0.00 0.00 0.00
0.01 0.01 0.00 0.00 0.00 0.00 0.00 0.00 0.00 0.00 0.00 0.00 0.00 0.00 0.00 0.00 0.00 0.00 0.00 0.00 0.00 0.00 0.00 0.00 0.00 0.00 0.00 0.00 0.00 0.00 0.00 0.00 0.00 0.00 0.00 0.00 0.00 0.00 0.00 0.00 0.00 0.00 0.00 0.00
0.01 0.01 0.00 0.00 0.00 0.00 0.00 0.00 0.00 0.00 0.00 0.00 0.00 0.00 0.00 0.00 0.00 0.00 0.00 0.00 0.00 0.00 0.00 0.00 0.00 0.00 0.00 0.00 0.00 0.00 0.00 0.00 0.00 0.00 0.00 0.00 0.00 0.00 0.00 0.00 0.00 0.00 0.00 0.00
0.00 0.00 0.00 0.00 0.00 0.00 0.00 0.00 0.00 0.00 0.00 0.00 0.00 0.00 0.00 0.00 0.00 0.00 0.00 0.00 0.00 0.00 0.00 0.00 0.00 0.00 0.00 0.00 0.00 0.00 0.00 0.00 0.00 0.00 0.00 0.00 0.00 0.00 0.00 0.00 0.00 0.00 0.00 0.00
0.00 0.00 0.00 0.00 0.00 0.00 0.00 0.00 0.00 0.00 0.00 0.00 0.00 0.00 0.00 0.00 0.00 0.00 0.00 0.00 0.00 0.00 0.00 0.00 0.00 0.00 0.00 0.00 0.00 0.00 0.00 0.00 0.00 0.00 0.00 0.00 0.00 0.00 0.00 0.00 0.00 0.00 0.00 0.00
0.00 0.00 0.00 0.00 0.00 0.00 0.00 0.00 0.00 0.00 0.00 0.00 0.00 0.00 0.00 0.00 0.00 0.00 0.00 0.00 0.00 0.00 0.00 0.00 0.00 0.00 0.00 0.00 0.00 0.00 0.00 0.00 0.00 0.00 0.00 0.00 0.00 0.00 0.00 0.00 0.00 0.00 0.00 0.00
0.00 0.00 0.00 0.00 0.00 0.00 0.00 0.00 0.00 0.00 0.00 0.00 0.00 0.00 0.00 0.00 0.00 0.00 0.00 0.00 0.00 0.00 0.00 0.00 0.00 0.00 0.00 0.00 0.00 0.00 0.00 0.00 0.00 0.00 0.00 0.00 0.00 0.00 0.00 0.00 0.00 0.00 0.00 0.00
0.00 0.00 0.00 0.00 0.00 0.00 0.00 0.00 0.00 0.00 0.00 0.00 0.00 0.00 0.00 0.00 0.00 0.00 0.00 0.00 0.00 0.00 0.00 0.00 0.00 0.00 0.00 0.00 0.00 0.00 0.00 0.00 0.00 0.00 0.00 0.00 0.00 0.00 0.00 0.00 0.00 0.00 0.00 0.00
MSLP
1019.52 1019.81 1018.59 1019.24 1019.42 1019.80 1019.89 1020.03 1020.08 1020.14 1020.09 1019.89 1019.49 1018.66 1018.34 1017.95 1017.63 1017.24 1016.88 1016.44 1015.91 1015.29 1014.45 1013.95 1013.62 1013.61 1013.69 1013.71 1013.85 1013.92 1014.49 1014.37 1015.05 1015.48 1015.94 1016.29 1015.85 1016.27 1016.75 1016.43 1016.54 1016.78 1017.07 1017.56
1019.56 1018.08 1019.13 1019.33 1019.58 1019.93 1020.00 1020.24 1020.28 1020.63 1020.46 1020.31 1019.84 1018.02 1017.74 1017.82 1016.96 1016.55 1016.07 1015.44 1014.71 1014.17 1013.74 1013.22 1012.85 1012.93 1012.96 1012.90 1012.87 1013.10 1013.20 1013.49 1013.95 1014.40 1014.48 1014.80 1015.29 1015.32 1015.23 1015.72 1015.78 1015.78 1016.16 1016.63
1018.68 1018.26 1018.69 1019.29 1019.79 1020.09 1020.02 1020.08 1020.50 1020.86 1020.79 1020.61 1020.38 1018.09 1017.11 1016.02 1015.83 1015.32 1014.85 1014.36 1013.40 1012.85 1012.38 1012.25 1012.28 1012.06 1012.11 1012.27 1012.33 1012.47 1012.42 1012.56 1012.91 1013.16 1013.89 1014.41 1014.79 1015.09 1015.19 1014.87 1014.83 1014.93 1015.30 1015.66
1019.01 1018.35 1018.70 1019.31 1019.37 1019.72 1019.91 1020.08 1020.54 1020.89 1021.27 1020.80 1020.39 1017.29 1016.30 1015.87 1015.34 1014.85 1014.14 1013.58 1012.74 1012.50 1012.09 1011.79 1011.70 1011.76 1011.72 1011.73 1011.88 1011.93 1012.03 1012.34 1012.48 1012.82 1013.23 1013.59 1013.71 1014.08 1013.89 1013.87 1014.30 1014.52 1014.69 1014.85
1018.12 1018.14 1018.46 1018.96 1018.05 1019.56 1019.48 1019.89 1020.45 1020.86 1020.98 1020.95 1019.90 1019.34 1015.19 1015.67 1014.50 1013.86 1013.65 1012.97 1012.66 1012.15 1011.61 1011.50 1011.59 1011.59 1011.43 1011.55 1011.52 1011.33 1011.42 1011.80 1012.02 1012.50 1012.82 1013.05 1013.40 1013.36 1013.39 1013.84 1013.87 1013.96 1014.05 1014.14
1018.14 1018.11 1018.06 1017.83 1018.31 1019.00 1019.50 1020.12 1020.51 1020.66 1020.82 1020.00 1017.36 1019.20 1015.06 1014.63 1014.02 1013.35 1013.15 1013.12 1012.76 1012.29 1011.63 1011.79 1011.86 1012.00 1012.38 1012.10 1012.04 1011.94 1011.84 1012.13 1012.12 1012.28 1012.53 1012.67 1012.78 1012.96 1013.13 1013.31 1013.38 1013.30 1013.37 1013.45
1018.18 1018.07 1018.00 1018.09 1018.36 1018.75 1019.33 1019.95 1020.22 1020.17 1019.78 1018.48 1017.51 1018.33 1014.65 1012.52 1013.15 1013.36 1013.46 1013.22 1013.19 1012.91 1012.48 1012.15 1012.50 1012.76 1013.01 1013.05 1012.79 1012.44 1012.45 1012.70 1012.82 1012.99 1013.06 1013.06 1012.58 1012.63 1012.68 1012.72 1012.73 1012.81 1012.88 1012.92
1017.56 1017.87 1017.79 1017.84 1017.74 1017.96 1018.46 1018.89 1018.78 1018.69 1019.18 1018.70 1017.93 1016.82 1013.60 1012.48 1012.10 1012.39 1012.89 1013.19 1013.50 1013.41 1013.20 1013.38 1013.54 1013.63 1013.84 1013.89 1013.86 1013.72 1013.50 1013.52 1013.10 1013.13 1013.53 1013.49 1013.36 1012.96 1012.61 1012.42 1012.29 1012.17 1012.18 1012.03
1017.02 1017.35 1017.17 1017.08 1017.37 1017.74 1017.85 1017.89 1017.97 1018.66 1019.66 1019.29 1017.81 1015.97 1013.94 1012.61 1012.60 1012.66 1012.87 1013.34 1013.96 1014.17 1014.27 1014.48 1014.43 1014.35 1014.49 1014.33 1014.42 1014.67 1014.77 1014.54 1014.26 1013.81 1013.71 1013.64 1013.45 1013.36 1013.07 1012.53 1012.14 1011.87 1011.61 1011.45
1016.38 1017.45 1017.30 1017.23 1017.52 1017.34 1017.20 1017.92 1018.47 1018.21 1018.36 1017.95 1017.05 1016.04 1013.45 1012.93 1012.97 1013.04 1013.69 1014.06 1014.71 1014.86 1015.06 1015.21 1015.35 1015.42 1015.44 1015.33 1015.25 1015.22 1015.36 1015.54 1015.19 1014.78 1014.53 1014.04 1014.04 1013.83 1013.16 1012.76 1012.52 1012.19 1011.66 1011.20
1016.05 1016.69 1017.82 1017.60 1017.11 1016.90 1017.49 1017.79 1017.78 1017.59 1017.11 1017.24 1017.20 1015.26 1014.21 1013.69 1013.03 1013.18 1013.93 1014.47 1015.13 1015.54 1015.85 1016.38 1016.47 1016.43 1016.39 1016.33 1016.19 1016.18 1016.06 1016.26 1015.92 1015.61 1015.13 1015.13 1014.72 1013.95 1013.54 1013.36 1012.93 1012.55 1011.95 1011.33
1015.33 1016.73 1017.60 1017.02 1016.74 1016.78 1016.91 1016.97 1017.32 1017.32 1016.83 1017.11 1016.93 1015.34 1014.67 1014.06 1013.95 1014.05 1014.92 1016.17 1016.73 1016.89 1017.20 1017.66 1017.70 1017.68 1017.55 1017.70 1017.54 1017.46 1017.28 1016.98 1016.89 1016.41 1015.98 1015.54 1015.30 1014.84 1014.13 1013.74 1013.58 1013.04 1012.35 1011.66
1014.66 1015.87 1016.94 1017.19 1017.13 1016.88 1016.65 1016.50 1016.34 1016.87 1017.37 1017.11 1016.86 1016.00 1015.38 1015.57 1016.35 1015.84 1016.72 1018.02 1018.84 1019.29 1019.06 1019.17 1019.07 1018.86 1018.61 1018.69 1018.70 1018.59 1018.35 1018.06 1017.71 1016.94 1016.72 1016.24 1015.78 1015.35 1015.03 1014.52 1013.97 1013.34 1012.69 1011.99
1013.98 1014.94 1015.26 1015.07 1014.90 1014.95 1015.94 1015.88 1016.22 1016.52 1016.71 1016.30 1016.13 1015.99 1016.03 1016.04 1017.27 1017.62 1017.43 1018.88 1019.63 1020.10 1020.54 1020.45 1020.29 1020.50 1020.58 1020.14 1019.70 1019.48 1019.29 1019.00 1018.52 1018.05 1017.50 1016.94 1016.48 1016.15 1015.97 1015.33 1014.70 1013.99 1013.24 1012.36
1013.44 1014.30 1015.20 1015.28 1015.05 1014.98 1014.93 1015.04 1015.59 1015.78 1015.23 1015.83 1015.35 1015.74 1015.94 1016.17 1016.69 1018.11 1018.19 1018.98 1019.95 1020.50 1020.91 1021.44 1021.63 1021.70 1021.78 1021.17 1020.77 1020.51 1020.41 1020.21 1019.67 1018.82 1018.12 1017.52 1017.28 1016.92 1016.34 1015.77 1014.99 1014.28 1013.64 1012.90
1013.42 1014.15 1015.21 1015.76 1015.71 1015.51 1015.35 1015.04 1015.00 1015.15 1015.51 1015.75 1015.82 1015.80 1015.59 1015.82 1016.60 1018.06 1018.79 1019.69 1020.77 1021.30 1022.22 1022.82 1022.35 1022.87 1023.01 1022.40 1021.64 1021.70 1021.60 1021.08 1020.49 1019.70 1019.15 1018.68 1018.26 1017.57 1016.92 1016.31 1015.31 1014.45 1013.51 1012.69
1012.83 1014.06 1015.61 1016.20 1016.12 1016.18 1015.71 1013.68 1014.37 1014.70 1015.12 1015.35 1015.74 1015.21 1015.87 1017.11 1018.41 1019.17 1019.98 1020.94 1022.08 1022.81 1023.56 1023.55 1023.84 1023.55 1023.35 1023.64 1023.09 1022.69 1021.80 1021.45 1020.94 1020.51 1019.95 1019.57 1018.78 1018.20 1017.66 1016.83 1015.71 1014.85 1013.85 1012.73
1012.60 1014.27 1015.88 1016.84 1017.04 1016.21 1013.62 1013.10 1013.08 1014.13 1014.99 1015.56 1015.85 1016.40 1016.38 1017.98 1019.77 1020.71 1022.12 1022.90 1023.91 1024.21 1024.28 1024.27 1024.89 1024.10 1024.05 1024.37 1023.85 1023.06 1022.40 1022.01 1021.60 1021.30 1020.98 1020.16 1019.82 1019.03 1018.30 1017.41 1016.50 1015.21 1014.05 1013.04
1012.24 1013.71 1015.95 1016.93 1017.26 1015.80 1014.10 1013.38 1013.68 1014.23 1015.37 1016.34 1016.96 1018.04 1018.80 1019.86 1020.77 1023.14 1024.01 1024.55 1024.67 1025.07 1025.43 1025.88 1025.66 1025.23 1025.39 1025.08 1024.86 1024.45 1023.12 1022.41 1022.05 1022.11 1021.66 1021.17 1020.49 1019.33 1018.56 1017.63 1016.54 1015.44 1013.94 1012.81
1012.45 1013.08 1015.08 1017.28 1017.55 1016.24 1014.30 1013.73 1013.75 1014.25 1016.15 1017.22 1017.98 1019.18 1020.00 1020.99 1022.45 1024.08 1024.90 1025.03 1025.55 1026.06 1026.46 1026.62 1026.44 1026.31 1026.00 1025.06 1024.24 1023.36 1023.04 1022.79 1022.41 1022.47 1022.07 1021.58 1020.73 1019.68 1018.84 1017.99 1016.72 1015.42 1014.31 1012.90
1012.44 1013.71 1015.02 1017.02 1017.61 1016.54 1015.02 1015.13 1015.20 1016.77 1017.38 1018.14 1019.50 1020.63 1021.25 1022.01 1023.18 1024.33 1025.18 1025.71 1026.14 1026.44 1026.57 1026.46 1026.21 1025.77 1025.53 1025.15 1024.78 1024.34 1024.09 1023.64 1023.52 1023.36 1022.54 1021.89 1021.33 1020.19 1019.19 1017.94 1017.00 1015.72 1014.10 1012.74
1012.04 1013.60 1015.10 1017.01 1018.00 1017.18 1016.48 1016.76 1017.28 1017.77 1018.97 1019.74 1021.18 1021.99 1022.56 1023.34 1024.20 1025.06 1025.83 1026.20 1026.49 1026.74 1026.83 1026.95 1027.00 1026.85 1026.59 1026.20 1025.67 1025.30 1025.05 1024.90 1024.77 1023.92 1023.04 1022.38 1021.53 1020.39 1019.36 1018.39 1017.10 1015.91 1014.62 1013.02
1012.65 1011.99 1013.59 1015.40 1016.34 1017.07 1017.99 1018.39 1018.94 1019.08 1019.82 1021.35 1022.15 1023.13 1023.70 1024.35 1025.08 1025.80 1026.51 1026.96 1027.29 1027.43 1027.53 1027.62 1027.54 1027.33 1027.14 1027.03 1026.70 1026.38 1026.00 1025.54 1024.41 1023.70 1023.06 1022.21 1021.44 1020.52 1019.58 1018.37 1016.97 1015.82 1014.58 1013.14
1012.74 1012.55 1013.97 1016.00 1017.40 1018.34 1019.43 1020.36 1020.86 1021.06 1021.72 1022.73 1023.52 1024.27 1024.93 1025.65 1026.38 1026.90 1027.22 1027.46 1027.77 1027.91 1028.06 1028.20 1028.02 1027.76 1027.64 1027.52 1027.25 1026.80 1026.21 1025.66 1025.09 1024.41 1023.42 1022.29 1021.25 1019.92 1019.14 1018.56 1017.43 1015.78 1014.61 1013.31
1013.18 1013.68 1015.40 1017.36 1018.86 1020.08 1020.76 1021.16 1022.05 1022.95 1023.62 1024.26 1025.02 1025.59 1026.15 1026.60 1027.37 1027.89 1028.14 1028.36 1028.46 1028.46 1028.38 1028.22 1028.15 1028.27 1028.10 1027.70 1027.17 1026.77 1026.38 1025.77 1024.75 1023.93 1023.24 1022.26 1021.33 1020.25 1019.30 1018.38 1017.36 1015.91 1014.51 1013.59
1014.62 1015.12 1016.22 1016.53 1016.54 1017.82 1019.27 1021.39 1022.72 1023.74 1024.62 1025.17 1025.78 1026.67 1027.39 1027.71 1028.24 1028.65 1028.94 1029.17 1029.15 1029.10 1029.13 1029.22 1029.42 1029.16 1028.74 1028.09 1027.45 1026.87 1026.53 1025.85 1025.20 1024.44 1023.52 1022.64 1021.83 1020.49 1019.53 1018.05 1016.51 1015.68 1014.26 1013.06
Thickness
5584 5578 5597 5596 5598 5599 5599 5601 5602 5602 5607 5611 5614 5623 5638 5648 5650 5656 5663 5667 5671 5680 5692 5695 5700 5702 5702 5702 5702 5703 5698 5699 5693 5688 5684 5682 5684 5681 5678 5679 5677 5673 5669 5664
5566 5587 5584 5591 5588 5589 5589 5588 5591 5590 5596 5598 5601 5625 5638 5639 5650 5656 5660 5667 5675 5680 5682 5690 5696 5696 5698 5701 5701 5700 5700 5698 5694 5689 5688 5687 5682 5683 5683 5677 5675 5673 5670 5664
5563 5582 5581 5577 5572 5575 5579 5582 5582 5578 5578 5582 5581 5608 5630 5651 5646 5656 5661 5667 5678 5684 5689 5691 5690 5693 5693 5696 5697 5696 5696 5693 5693 5691 5685 5681 5678 5675 5674 5676 5675 5673 5669 5664
5549 5568 5566 5560 5568 5571 5567 5577 5572 5566 5562 5562 5569 5583 5619 5630 5634 5643 5654 5660 5672 5675 5681 5685 5686 5685 5687 5687 5688 5689 5690 5687 5686 5684 5679 5677 5677 5673 5676 5675 5670 5669 5666 5662
5551 5552 5556 5553 5584 5560 5570 5565 5559 5555 5549 5548 5568 5553 5610 5616 5633 5650 5648 5653 5656 5666 5674 5675 5676 5676 5678 5677 5678 5681 5681 5680 5679 5675 5673 5670 5667 5671 5670 5665 5664 5662 5663 5659
5539 5544 5547 5559 5563 5554 5557 5549 5547 5545 5544 5539 5586 5549 5598 5618 5630 5637 5642 5639 5642 5650 5660 5661 5662 5662 5660 5662 5661 5663 5664 5663 5663 5662 5662 5662 5662 5661 5660 5658 5657 5658 5657 5657
5530 5532 5539 5547 5548 5546 5545 5539 5536 5538 5538 5547 5574 5547 5590 5637 5622 5621 5618 5627 5629 5633 5641 5648 5647 5644 5643 5643 5644 5646 5646 5644 5644 5645 5644 5644 5652 5653 5652 5652 5652 5651 5650 5650
5525 5523 5529 5541 5546 5547 5540 5548 5543 5539 5538 5540 5548 5548 5593 5619 5627 5624 5614 5618 5617 5619 5623 5625 5627 5626 5626 5625 5625 5627 5627 5627 5630 5631 5628 5629 5631 5637 5641 5643 5644 5644 5644 5646
5521 5520 5529 5535 5538 5539 5538 5537 5552 5531 5486 5512 5536 5555 5586 5606 5605 5608 5601 5603 5601 5601 5601 5602 5606 5610 5611 5612 5611 5608 5608 5609 5610 5614 5612 5614 5616 5619 5625 5630 5633 5635 5637 5639
5512 5490 5521 5526 5526 5531 5538 5541 5529 5530 5536 5535 5540 5543 5580 5592 5592 5588 5585 5585 5583 5585 5584 5585 5588 5589 5591 5594 5596 5595 5593 5591 5593 5596 5596 5599 5599 5601 5608 5612 5614 5618 5623 5627
5504 5507 5499 5513 5522 5534 5527 5522 5521 5530 5529 5533 5525 5550 5565 5575 5582 5584 5580 5573 5568 5568 5566 5564 5565 5567 5570 5571 5574 5576 5578 5575 5577 5578 5582 5580 5583 5590 5592 5593 5597 5600 5607 5612
5511 5493 5472 5513 5518 5518 5521 5524 5522 5523 5537 5531 5529 5555 5551 5555 5565 5569 5563 5549 5545 5543 5542 5541 5542 5544 5547 5547 5549 5552 5556 5558 5558 5561 5565 5568 5569 5571 5575 5578 5578 5582 5588 5594
5507 5499 5492 5493 5509 5507 5513 5519 5527 5511 5499 5519 5529 5540 5541 5541 5532 5539 5534 5517 5514 5511 5516 5517 5519 5522 5526 5527 5528 5530 5533 5535 5537 5544 5545 5548 5552 5556 5558 5560 5563 5565 5570 5574
5510 5492 5500 5515 5515 5523 5513 5518 5516 5511 5513 5513 5528 5527 5529 5525 5517 5517 5520 5503 5495 5492 5489 5492 5496 5497 5497 5502 5508 5511 5512 5515 5518 5521 5526 5530 5533 5536 5537 5542 5546 5550 5554 5559
5500 5487 5488 5500 5510 5512 5517 5516 5512 5509 5528 5517 5523 5513 5524 5515 5516 5507 5509 5501 5490 5484 5480 5475 5475 5476 5475 5483 5487 5490 5490 5491 5495 5503 5508 5512 5514 5516 5520 5524 5529 5534 5537 5542
5493 5483 5482 5471 5488 5491 5500 5511 5510 5515 5511 5500 5505 5512 5520 5519 5516 5496 5490 5480 5472 5468 5462 5453 5457 5454 5455 5462 5471 5469 5470 5473 5477 5484 5487 5489 5492 5497 5501 5505 5512 5518 5524 5529
5497 5479 5476 5490 5481 5477 5473 5503 5509 5516 5514 5509 5504 5525 5509 5505 5498 5485 5472 5463 5451 5446 5442 5439 5436 5440 5442 5440 5447 5449 5456 5457 5461 5465 5469 5471 5476 5479 5480 5485 5493 5498 5505 5514
5490 5472 5457 5416 5465 5474 5512 5503 5511 5507 5498 5491 5498 5487 5501 5482 5459 5453 5443 5436 5424 5423 5423 5424 5419 5426 5428 5423 5426 5434 5439 5440 5442 5445 5446 5451 5452 5456 5461 5467 5472 5480 5486 5493
5485 5465 5446 5440 5415 5461 5493 5496 5490 5495 5494 5464 5470 5460 5454 5443 5438 5419 5415 5410 5409 5406 5404 5401 5404 5405 5403 5405 5407 5409 5421 5427 5429 5425 5426 5427 5430 5437 5442 5446 5453 5461 5472 5480
5472 5480 5465 5389 5440 5437 5486 5489 5476 5494 5486 5450 5451 5440 5441 5437 5446 5408 5397 5397 5392 5389 5385 5384 5383 5383 5385 5392 5399 5404 5405 5405 5406 5406 5406 5406 5410 5417 5421 5424 5433 5441 5447 5458
5468 5459 5467 5396 5398 5427 5467 5456 5457 5457 5484 5431 5422 5416 5416 5426 5405 5393 5386 5381 5379 5376 5375 5374 5374 5375 5375 5377 5378 5381 5382 5382 5380 5379 5381 5382 5382 5388 5393 5401 5406 5412 5424 5437
5470 5458 5443 5408 5418 5441 5419 5443 5464 5442 5415 5412 5399 5396 5396 5391 5384 5377 5371 5369 5367 5363 5361 5359 5356 5354 5354 5355 5358 5360 5359 5356 5355 5358 5360 5361 5362 5366 5371 5374 5380 5384 5389 5400
5448 5462 5445 5457 5457 5413 5404 5407 5403 5410 5404 5392 5386 5378 5376 5372 5364 5359 5353 5351 5348 5346 5344 5341 5339 5338 5337 5334 5335 5335 5333 5334 5339 5339 5339 5341 5342 5342 5343 5347 5355 5358 5363 5371
5441 5447 5437 5433 5405 5394 5385 5379 5379 5383 5379 5373 5368 5361 5357 5351 5346 5340 5338 5337 5332 5330 5328 5325 5323 5322 5319 5316 5314 5313 5314 5313 5312 5312 5314 5316 5318 5320 5318 5316 5318 5326 5328 5334
5433 5439 5415 5397 5381 5374 5374 5374 5364 5358 5354 5351 5347 5344 5340 5338 5328 5324 5323 5319 5316 5314 5312 5310 5308 5304 5301 5300 5298 5296 5292 5290 5291 5288 5286 5284 5282 5278 5279 5279 5281 5288 5293 5294
5397 5420 5434 5436 5412 5402 5389 5364 5355 5347 5340 5338 5335 5327 5322 5320 5314 5308 5304 5300 5298 5296 5292 5289 5284 5282 5279 5278 5277 5273 5268 5265 5262 5259 5255 5248 5246 5249 5248 5252 5260 5258 5263 5268